• en Belgique
  • Liste des pays
  • À 7 jours
  • Température de l'eau
  • Carte satellitaire
  • Carte météo
  • Widgets météo
  • user-avatar
    Se connecter

    Météo par heure à Amanzimtoti

    Ce jour, 27 Mai, Dimanche

    Heure Température Précipitation Vent Pression Humidité
    00:00 +18°C° 0,1 mm 3 m/s 763 mmHg 93%
    01:00 +18°C° 0,1 mm 2 m/s 762 mmHg 93%
    02:00 +18°C° 0,1 mm 2 m/s 762 mmHg 93%
    03:00 +18°C° 0,1 mm 2 m/s 762 mmHg 93%
    04:00 +18°C° 0,1 mm 2 m/s 762 mmHg 92%
    05:00 +19°C° 0,1 mm 1 m/s 762 mmHg 91%
    06:00 +19°C° 0,1 mm 1 m/s 762 mmHg 90%
    07:00 +19°C° 0,1 mm 1 m/s 763 mmHg 89%
    08:00 +20°C° 0,1 mm 1 m/s 763 mmHg 88%
    09:00 +21°C° 0,1 mm 1 m/s 763 mmHg 82%
    10:00 +23°C° 0,1 mm 1 m/s 763 mmHg 75%
    11:00 +25°C° 0,1 mm 1 m/s 763 mmHg 68%
    12:00 +24°C° 0 mm 2 m/s 762 mmHg 69%
    13:00 +24°C° 0 mm 3 m/s 762 mmHg 71%
    14:00 +23°C° 0 mm 4 m/s 761 mmHg 72%
    15:00 +22°C° 0,1 mm 4 m/s 761 mmHg 77%
    16:00 +21°C° 0,1 mm 4 m/s 761 mmHg 82%
    17:00 +21°C° 0,1 mm 4 m/s 762 mmHg 87%
    18:00 +20°C° 0,1 mm 4 m/s 762 mmHg 90%
    19:00 +20°C° 0,1 mm 4 m/s 762 mmHg 92%
    20:00 +19°C° 0,1 mm 4 m/s 763 mmHg 94%
    21:00 +19°C° 0,1 mm 4 m/s 763 mmHg 93%
    22:00 +19°C° 0,1 mm 4 m/s 763 mmHg 92%
    23:00 +19°C° 0,1 mm 4 m/s 763 mmHg 92%

    Demain, 28 Mai, Lundi

    Heure Température Précipitation Vent Pression Humidité
    00:00 +19°C° 0,1 mm 4 m/s 763 mmHg 92%
    01:00 +18°C° 0,1 mm 4 m/s 762 mmHg 93%
    02:00 +18°C° 0,1 mm 4 m/s 762 mmHg 94%
    03:00 +17°C° 0,1 mm 4 m/s 762 mmHg 94%
    04:00 +17°C° 0,1 mm 4 m/s 761 mmHg 95%
    05:00 +15°C° 0,1 mm 5 m/s 761 mmHg 95%
    06:00 +16°C° 0 mm 5 m/s 761 mmHg 92%
    07:00 +16°C° 0 mm 5 m/s 761 mmHg 89%
    08:00 +17°C° 0 mm 5 m/s 761 mmHg 86%
    09:00 +20°C° 0 mm 5 m/s 761 mmHg 75%
    10:00 +23°C° 0 mm 5 m/s 760 mmHg 64%
    11:00 +27°C° 0 mm 6 m/s 760 mmHg 53%
    12:00 +28°C° 0 mm 6 m/s 759 mmHg 50%
    13:00 +29°C° 0 mm 6 m/s 758 mmHg 47%
    14:00 +30°C° 0 mm 7 m/s 757 mmHg 44%
    15:00 +28°C° 0 mm 7 m/s 757 mmHg 53%
    16:00 +26°C° 0 mm 7 m/s 756 mmHg 62%
    17:00 +23°C° 0 mm 6 m/s 756 mmHg 71%
    18:00 +22°C° 0 mm 7 m/s 757 mmHg 70%
    19:00 +21°C° 0 mm 7 m/s 757 mmHg 69%
    20:00 +21°C° 0 mm 7 m/s 757 mmHg 69%
    21:00 +21°C° 0 mm 6 m/s 756 mmHg 64%
    22:00 +20°C° 0 mm 6 m/s 756 mmHg 59%
    23:00 +20°C° 0 mm 6 m/s 756 mmHg 54%

    Après-demain, 29 Mai, Mardi

    Heure Température Précipitation Vent Pression Humidité
    00:00 +20°C° 0 mm 6 m/s 755 mmHg 50%
    01:00 +20°C° 0 mm 5 m/s 755 mmHg 45%
    02:00 +20°C° 0 mm 5 m/s 754 mmHg 41%
    03:00 +21°C° 0 mm 5 m/s 754 mmHg 40%
    04:00 +21°C° 0 mm 4 m/s 754 mmHg 39%
    05:00 +21°C° 0 mm 4 m/s 754 mmHg 37%
    06:00 +21°C° 0 mm 4 m/s 754 mmHg 40%
    07:00 +21°C° 0 mm 5 m/s 754 mmHg 44%
    08:00 +21°C° 0 mm 5 m/s 755 mmHg 47%
    09:00 +23°C° 0 mm 5 m/s 755 mmHg 45%
    10:00 +26°C° 0 mm 5 m/s 755 mmHg 44%
    11:00 +27°C° 0 mm 5 m/s 755 mmHg 43%
    12:00 +26°C° 0,5 mm 5 m/s 755 mmHg 54%
    13:00 +23°C° 0,5 mm 5 m/s 755 mmHg 65%
    14:00 +21°C° 0,5 mm 5 m/s 755 mmHg 76%
    15:00 +20°C° 0,2 mm 5 m/s 756 mmHg 78%
    16:00 +19°C° 0,2 mm 6 m/s 756 mmHg 80%
    17:00 +19°C° 0,2 mm 6 m/s 757 mmHg 82%
    18:00 +19°C° 0,3 mm 6 m/s 758 mmHg 83%
    19:00 +17°C° 0,3 mm 6 m/s 759 mmHg 84%
    20:00 +17°C° 0,3 mm 6 m/s 759 mmHg 85%
    21:00 +17°C° 0,2 mm 6 m/s 760 mmHg 85%
    22:00 +17°C° 0,2 mm 5 m/s 760 mmHg 86%
    23:00 +16°C° 0,2 mm 5 m/s 760 mmHg 87%

    30 Mai, Mercredi

    Heure Température Précipitation Vent Pression Humidité
    00:00 +16°C° 0 mm 5 m/s 760 mmHg 87%
    01:00 +15°C° 0 mm 5 m/s 760 mmHg 87%
    02:00 +15°C° 0 mm 5 m/s 760 mmHg 88%
    03:00 +14°C° 0 mm 4 m/s 760 mmHg 88%
    04:00 +14°C° 0 mm 4 m/s 760 mmHg 88%
    05:00 +14°C° 0 mm 4 m/s 760 mmHg 88%
    06:00 +14°C° 0 mm 3 m/s 760 mmHg 86%
    07:00 +16°C° 0 mm 3 m/s 760 mmHg 85%
    08:00 +16°C° 0 mm 3 m/s 761 mmHg 83%
    09:00 +18°C° 0 mm 2 m/s 760 mmHg 73%
    10:00 +20°C° 0 mm 2 m/s 760 mmHg 62%
    11:00 +23°C° 0 mm 2 m/s 759 mmHg 52%
    12:00 +23°C° 0 mm 2 m/s 759 mmHg 53%
    13:00 +22°C° 0 mm 3 m/s 758 mmHg 53%
    14:00 +23°C° 0 mm 4 m/s 757 mmHg 54%
    15:00 +21°C° 0 mm 4 m/s 757 mmHg 61%
    16:00 +20°C° 0 mm 5 m/s 756 mmHg 68%
    17:00 +19°C° 0 mm 5 m/s 756 mmHg 75%
    18:00 +17°C° 0 mm 5 m/s 757 mmHg 81%
    19:00 +16°C° 0 mm 6 m/s 757 mmHg 86%
    20:00 +15°C° 0 mm 6 m/s 757 mmHg 91%
    21:00 +15°C° 0 mm 6 m/s 757 mmHg 91%
    22:00 +15°C° 0 mm 5 m/s 757 mmHg 91%
    23:00 +15°C° 0 mm 5 m/s 757 mmHg 91%

    31 Mai, Jeudi

    Heure Température Précipitation Vent Pression Humidité
    00:00 +14°C° 0 mm 5 m/s 756 mmHg 89%
    01:00 +14°C° 0 mm 4 m/s 756 mmHg 87%
    02:00 +13°C° 0 mm 4 m/s 755 mmHg 85%
    03:00 +13°C° 0 mm 4 m/s 755 mmHg 78%
    04:00 +13°C° 0 mm 3 m/s 755 mmHg 72%
    05:00 +13°C° 0 mm 3 m/s 754 mmHg 65%
    06:00 +14°C° 0 mm 3 m/s 755 mmHg 60%
    07:00 +16°C° 0 mm 3 m/s 755 mmHg 54%
    08:00 +17°C° 0 mm 3 m/s 755 mmHg 48%
    09:00 +19°C° 0,1 mm 2 m/s 755 mmHg 47%
    10:00 +20°C° 0,1 mm 2 m/s 755 mmHg 46%
    11:00 +23°C° 0,1 mm 1 m/s 754 mmHg 44%
    12:00 +24°C° 0 mm 2 m/s 754 mmHg 44%
    13:00 +25°C° 0 mm 2 m/s 753 mmHg 43%
    14:00 +26°C° 0 mm 3 m/s 753 mmHg 42%
    15:00 +23°C° 0,1 mm 4 m/s 753 mmHg 51%
    16:00 +21°C° 0,1 mm 4 m/s 754 mmHg 60%
    17:00 +19°C° 0,1 mm 5 m/s 754 mmHg 69%
    18:00 +17°C° 0 mm 5 m/s 755 mmHg 73%
    19:00 +16°C° 0 mm 5 m/s 755 mmHg 76%
    20:00 +17°C° 0 mm 4 m/s 756 mmHg 79%
    21:00 +15°C° 0 mm 4 m/s 756 mmHg 79%
    22:00 +15°C° 0 mm 4 m/s 756 mmHg 79%
    23:00 +16°C° 0 mm 3 m/s 756 mmHg 79%

    1 Juin, Vendredi

    Heure Température Précipitation Vent Pression Humidité
    00:00 +14°C° 0 mm 3 m/s 755 mmHg 79%
    01:00 +14°C° 0 mm 3 m/s 755 mmHg 78%
    02:00 +14°C° 0 mm 3 m/s 754 mmHg 78%
    03:00 +14°C° 0 mm 3 m/s 754 mmHg 77%
    04:00 +13°C° 0 mm 3 m/s 754 mmHg 77%
    05:00 +13°C° 0 mm 3 m/s 754 mmHg 76%
    06:00 +14°C° 0 mm 3 m/s 753 mmHg 71%
    07:00 +14°C° 0 mm 3 m/s 753 mmHg 66%
    08:00 +16°C° 0 mm 3 m/s 753 mmHg 61%
    09:00 +19°C° 0 mm 3 m/s 753 mmHg 50%
    10:00 +23°C° 0 mm 2 m/s 752 mmHg 40%
    11:00 +26°C° 0 mm 2 m/s 752 mmHg 29%
    12:00 +27°C° 0 mm 2 m/s 751 mmHg 29%
    13:00 +28°C° 0 mm 1 m/s 750 mmHg 29%
    14:00 +29°C° 0 mm 1 m/s 750 mmHg 29%
    15:00 +26°C° 0 mm 2 m/s 750 mmHg 39%
    16:00 +23°C° 0 mm 2 m/s 750 mmHg 50%
    17:00 +20°C° 0 mm 3 m/s 751 mmHg 60%
    18:00 +19°C° 0 mm 3 m/s 752 mmHg 64%
    19:00 +18°C° 0 mm 3 m/s 753 mmHg 68%
    20:00 +17°C° 0 mm 3 m/s 754 mmHg 72%
    21:00 +15°C° 0 mm 4 m/s 754 mmHg 70%
    22:00 +15°C° 0 mm 4 m/s 755 mmHg 69%
    23:00 +15°C° 0 mm 5 m/s 755 mmHg 67%
    Voir plus